| time (UTC) | temp F | wind direction | speed MPH | gust MPH | rain 1hr in | rain 24hr in | rain mn in | humidity % | barometer mb |
| 20260509004551 | 48 | 287 | 1.0 | 7.0 | 0.00 | 0.14 | 0.02 | 84 | 1011.9 |
| 20260509003041 | 49 | 254 | 1.0 | 6.0 | 0.00 | 0.14 | 0.02 | 83 | 1011.7 |
| 20260509001533 | 49 | 269 | 0.0 | 5.0 | 0.00 | 0.14 | 0.02 | 82 | 1011.4 |
| 20260509000033 | 49 | 265 | 0.0 | 6.0 | 0.00 | 0.14 | 0.02 | 81 | 1011.5 |
| 20260508234532 | 50 | 254 | 2.0 | 5.0 | 0.00 | 0.14 | 0.02 | 79 | 1011.4 |
| 20260508233032 | 51 | 297 | 0.0 | 5.0 | 0.00 | 0.14 | 0.02 | 77 | 1011.0 |
| 20260508231530 | 51 | 248 | 1.0 | 5.0 | 0.00 | 0.14 | 0.02 | 78 | 1011.0 |
| 20260508230029 | 50 | 264 | 1.0 | 6.0 | 0.00 | 0.14 | 0.02 | 79 | 1010.8 |
| 20260508224530 | 51 | 208 | 1.0 | 10.0 | 0.00 | 0.14 | 0.02 | 74 | 1011.0 |
| 20260508223039 | 55 | 195 | 3.0 | 8.0 | 0.00 | 0.14 | 0.02 | 62 | 1010.6 |
| 20260508221531 | 57 | 226 | 3.0 | 7.0 | 0.00 | 0.14 | 0.02 | 57 | 1010.8 |
| 20260508220032 | 56 | 238 | 0.0 | 5.0 | 0.00 | 0.14 | 0.02 | 59 | 1010.5 |
| 20260508214538 | 54 | 261 | 2.0 | 6.0 | 0.00 | 0.14 | 0.02 | 66 | 1010.9 |
| 20260508213033 | 54 | 235 | 1.0 | 7.0 | 0.00 | 0.14 | 0.02 | 64 | 1010.6 |
| 20260508211530 | 55 | 267 | 1.0 | 10.0 | 0.00 | 0.14 | 0.02 | 62 | 1010.6 |
| 20260508210028 | 56 | 217 | 4.0 | 8.0 | 0.00 | 0.14 | 0.02 | 59 | 1010.8 |
| 20260508204532 | 56 | 199 | 1.0 | 6.0 | 0.00 | 0.14 | 0.02 | 64 | 1010.8 |
| 20260508203024 | 55 | 202 | 3.0 | 7.0 | 0.00 | 0.14 | 0.02 | 67 | 1011.1 |
| 20260508201521 | 54 | 266 | 3.0 | 10.0 | 0.01 | 0.14 | 0.02 | 71 | 1011.3 |
| 20260508200019 | 53 | 241 | 3.0 | 7.0 | 0.01 | 0.14 | 0.02 | 73 | 1011.4 |
| 20260508194518 | 51 | 248 | 1.0 | 6.0 | 0.01 | 0.14 | 0.02 | 80 | 1011.7 |
| 20260508193018 | 48 | 302 | 2.0 | 12.0 | 0.01 | 0.14 | 0.02 | 82 | 1012.2 |
| 20260508191517 | 51 | 254 | 6.0 | 15.0 | 0.01 | 0.14 | 0.02 | 68 | 1012.1 |
| 20260508190023 | 53 | 278 | 3.0 | 11.0 | 0.00 | 0.13 | 0.01 | 59 | 1011.5 |
| 20260508184516 | 53 | 310 | 2.0 | 7.0 | 0.00 | 0.13 | 0.01 | 58 | 1011.7 |
| 20260508183014 | 52 | 299 | 1.0 | 8.0 | 0.00 | 0.13 | 0.01 | 61 | 1012.1 |
| 20260508181512 | 52 | 325 | 0.0 | 8.0 | 0.00 | 0.13 | 0.01 | 61 | 1012.2 |
| 20260508180017 | 53 | 76 | 0.0 | 8.0 | 0.00 | 0.13 | 0.01 | 60 | 1012.2 |
| 20260508174511 | 51 | 286 | 0.0 | 7.0 | 0.00 | 0.13 | 0.01 | 63 | 1012.5 |
| 20260508173009 | 50 | 294 | 2.0 | 10.0 | 0.00 | 0.13 | 0.01 | 64 | 1012.5 |
| 20260508171508 | 50 | 272 | 2.0 | 9.0 | 0.00 | 0.13 | 0.01 | 65 | 1012.7 |
| 20260508170006 | 50 | 269 | 2.0 | 8.0 | 0.00 | 0.13 | 0.01 | 68 | 1012.7 |
| 20260508164505 | 49 | 360 | 2.0 | 11.0 | 0.00 | 0.13 | 0.01 | 67 | 1012.8 |
| 20260508163002 | 48 | 27 | 3.0 | 13.0 | 0.00 | 0.13 | 0.01 | 71 | 1012.9 |
| 20260508161557 | 47 | 28 | 0.0 | 5.0 | 0.00 | 0.13 | 0.01 | 77 | 1013.1 |
| 20260508160126 | 45 | 265 | 2.0 | 8.0 | 0.00 | 0.13 | 0.01 | 83 | 1013.5 |
| 20260508154556 | 45 | 285 | 3.0 | 8.0 | 0.00 | 0.13 | 0.01 | 83 | 1013.2 |
| 20260508153049 | 46 | 239 | 2.0 | 8.0 | 0.00 | 0.13 | 0.01 | 84 | 1013.0 |
| 20260508151550 | 44 | 269 | 1.0 | 7.0 | 0.00 | 0.13 | 0.01 | 85 | 1012.9 |
| 20260508150046 | 44 | 289 | 1.0 | 8.0 | 0.00 | 0.13 | 0.01 | 85 | 1012.9 |
| 20260508144547 | 45 | 232 | 1.0 | 4.0 | 0.00 | 0.13 | 0.01 | 84 | 1012.7 |
| 20260508143057 | 45 | 195 | 0.0 | 8.0 | 0.00 | 0.13 | 0.01 | 87 | 1012.7 |
| 20260508141551 | 44 | 306 | 1.0 | 6.0 | 0.00 | 0.13 | 0.01 | 91 | 1012.5 |
| 20260508140041 | 43 | 257 | 2.0 | 6.0 | 0.00 | 0.13 | 0.01 | 94 | 1012.6 |
| 20260508134536 | 41 | 236 | 1.0 | 7.0 | 0.00 | 0.13 | 0.01 | 96 | 1012.7 |
| 20260508133036 | 40 | 250 | 2.0 | 7.0 | 0.00 | 0.13 | 0.01 | 96 | 1012.6 |
| 20260508131530 | 39 | 223 | 1.0 | 7.0 | 0.00 | 0.13 | 0.01 | 96 | 1012.7 |
| 20260508130027 | 39 | 238 | 0.0 | 5.0 | 0.00 | 0.13 | 0.01 | 96 | 1012.7 |
| 20260508124524 | 37 | 212 | 1.0 | 4.0 | 0.01 | 0.13 | 0.01 | 96 | 1012.3 |
| 20260508123023 | 36 | 240 | 0.0 | 3.0 | 0.01 | 0.13 | 0.01 | 96 | 1012.5 |
| 20260508121548 | 35 | 240 | 1.0 | 4.0 | 0.01 | 0.13 | 0.01 | 96 | 1012.8 |
| 20260508120022 | 35 | 240 | 0.0 | 3.0 | 0.01 | 0.13 | 0.01 | 96 | 1012.5 |
| 20260508114521 | 35 | 240 | 0.0 | 4.0 | 0.00 | 0.12 | 0.00 | 96 | 1012.9 |
| 20260508113021 | 35 | 239 | 0.0 | 3.0 | 0.00 | 0.12 | 0.00 | 96 | 1012.8 |
| 20260508111521 | 35 | 238 | 0.0 | 4.0 | 0.00 | 0.12 | 0.00 | 96 | 1012.6 |
| 20260508110019 | 35 | 238 | 0.0 | 2.0 | 0.00 | 0.12 | 0.00 | 96 | 1012.6 |
| 20260508104523 | 34 | 238 | 0.0 | 3.0 | 0.00 | 0.12 | 0.00 | 96 | 1012.5 |
| 20260508103018 | 35 | 238 | 0.0 | 0.0 | 0.00 | 0.12 | 0.00 | 96 | 1012.3 |
| 20260508101516 | 34 | 238 | 0.0 | 2.0 | 0.00 | 0.12 | 0.00 | 95 | 1012.4 |
| 20260508100015 | 34 | 238 | 0.0 | 3.0 | 0.00 | 0.12 | 0.00 | 95 | 1012.4 |
| 20260508094514 | 35 | 238 | 0.0 | 4.0 | 0.00 | 0.12 | 0.00 | 95 | 1012.4 |
| 20260508093021 | 35 | 261 | 2.0 | 6.0 | 0.00 | 0.12 | 0.00 | 95 | 1012.5 |
| 20260508091517 | 35 | 254 | 0.0 | 3.0 | 0.00 | 0.12 | 0.00 | 95 | 1012.4 |
| 20260508090017 | 35 | 275 | 1.0 | 3.0 | 0.00 | 0.12 | 0.00 | 95 | 1012.5 |
| 20260508084513 | 34 | 277 | 0.0 | 2.0 | 0.00 | 0.12 | 0.00 | 95 | 1012.3 |
| 20260508083032 | 35 | 277 | 0.0 | 0.0 | 0.00 | 0.12 | 0.00 | 95 | 1012.3 |
| 20260508081510 | 35 | 277 | 0.0 | 0.0 | 0.00 | 0.12 | 0.00 | 95 | 1012.3 |
| 20260508080009 | 35 | 277 | 0.0 | 4.0 | 0.00 | 0.12 | 0.00 | 95 | 1012.2 |
| 20260508074507 | 35 | 278 | 0.0 | 1.0 | 0.00 | 0.12 | 0.00 | 95 | 1012.3 |
| 20260508073007 | 36 | 278 | 0.0 | 3.0 | 0.00 | 0.12 | 0.00 | 95 | 1012.2 |
| 20260508071511 | 35 | 278 | 0.0 | 2.0 | 0.00 | 0.12 | 0.00 | 95 | 1012.1 |
| 20260508070009 | 35 | 278 | 0.0 | 2.0 | 0.00 | 0.12 | 0.00 | 94 | 1012.1 |
| 20260508064517 | 36 | 278 | 0.0 | 2.0 | 0.00 | 0.12 | 0.00 | 94 | 1012.2 |
| 20260508063003 | 37 | 278 | 0.0 | 3.0 | 0.00 | 0.12 | 0.12 | 95 | 1012.4 |
| 20260508061602 | 37 | 281 | 0.0 | 2.0 | 0.00 | 0.12 | 0.12 | 94 | 1012.5 |
| 20260508060106 | 37 | 281 | 0.0 | 3.0 | 0.00 | 0.12 | 0.12 | 94 | 1012.4 |
| 20260508054604 | 37 | 281 | 0.0 | 3.0 | 0.00 | 0.12 | 0.12 | 94 | 1012.3 |
| 20260508053101 | 37 | 281 | 0.0 | 2.0 | 0.00 | 0.12 | 0.12 | 93 | 1012.4 |
| 20260508051559 | 37 | 282 | 0.0 | 4.0 | 0.00 | 0.12 | 0.12 | 92 | 1012.4 |
| 20260508050100 | 38 | 284 | 1.0 | 4.0 | 0.00 | 0.12 | 0.12 | 92 | 1012.3 |
| 20260508044559 | 39 | 283 | 0.0 | 3.0 | 0.00 | 0.12 | 0.12 | 92 | 1012.3 |
| 20260508043058 | 39 | 282 | 0.0 | 3.0 | 0.00 | 0.12 | 0.12 | 92 | 1012.2 |
| 20260508041557 | 39 | 282 | 0.0 | 2.0 | 0.00 | 0.12 | 0.12 | 92 | 1012.2 |
| 20260508040055 | 39 | 285 | 0.0 | 2.0 | 0.00 | 0.12 | 0.12 | 93 | 1012.1 |
| 20260508034555 | 39 | 285 | 0.0 | 3.0 | 0.01 | 0.12 | 0.12 | 92 | 1012.0 |
| 20260508033053 | 39 | 285 | 0.0 | 2.0 | 0.02 | 0.12 | 0.12 | 92 | 1012.1 |
| 20260508031558 | 40 | 285 | 0.0 | 0.0 | 0.02 | 0.12 | 0.12 | 92 | 1012.0 |
| 20260508030114 | 40 | 285 | 0.0 | 1.0 | 0.05 | 0.12 | 0.12 | 92 | 1012.1 |
| 20260508024604 | 41 | 285 | 0.0 | 0.0 | 0.09 | 0.11 | 0.11 | 92 | 1012.4 |
| 20260508023055 | 41 | 285 | 0.0 | 0.0 | 0.10 | 0.10 | 0.10 | 91 | 1012.4 |
| 20260508021548 | 41 | 285 | 0.0 | 3.0 | 0.10 | 0.10 | 0.10 | 90 | 1012.3 |
| 20260508020049 | 41 | 291 | 0.0 | 7.0 | 0.08 | 0.08 | 0.08 | 87 | 1012.3 |
| 20260508014546 | 43 | 315 | 3.0 | 16.0 | 0.03 | 0.03 | 0.03 | 81 | 1012.1 |
| 20260508013045 | 47 | 18 | 1.0 | 5.0 | 0.00 | 0.00 | 0.00 | 64 | 1011.1 |
| 20260508011605 | 48 | 34 | 0.0 | 0.0 | 0.00 | 0.00 | 0.00 | 59 | 1010.2 |
| 20260508010106 | 48 | 34 | 0.0 | 1.0 | 0.00 | 0.00 | 0.00 | 58 | 1010.2 |